Regional Weather Roundup
Issued by NWS Grand Forks, ND

Home | Current Version | Previous Version | Graphics & Text | Print | Product List | Glossary On
Versions: 1 2 3 4 5 6 7 8 9 10 11 12 13 14 15 16 17 18 19 20 21 22 23 24 25 26 27 28 29 30 31 32 33 34 35 36 37 38 39 40 41 42 43 44 45 46 47 48 49 50
000
ASUS43 KFGF 040610
RWRFGF
PRAIRIE TO PINES  WEATHER ROUNDUP
NATIONAL WEATHER SERVICE EASTERN NORTH DAKOTA/GRAND FORKS ND
1200 AM CST SUN DEC 04 2016

 **SATELLITE DATA USED TO AUGMENT SKY COVER AT AUTOMATED STATIONS**
 *****  WEATHER ACROSS EASTERN NORTH DAKOTA  *****

CITY           SKY/WX    TMP DP  RH WIND       PRES   REMARKS
GRAND FORKS    CLOUDY    34  31  88 S15       29.88F WCI  24
6HR MIN TEMP:  30; 6HR MAX TEMP:  34; 6HR PCP:  0.04;

GRAND FRKS AFB CLOUDY    33  31  95 S14       29.86F WCI  23
GRAND FRKS NWS   N/A     32 N/A N/A SE20        N/A  WCI  20
DEVILS LAKE    CLOUDY    33  31  92 S12       29.77  WCI  24
6HR MIN TEMP:  30; 6HR MAX TEMP:  33; 6HR PCP: TRACE;

FARGO          CLOUDY    35  31  85 SE17G28   29.90F WCI  25
WAHPETON ARPT  CLOUDY    32  32 100 SE15      29.94F WCI  22
$$

 ***** WEATHER ACROSS CENTRAL AND WESTERN NORTH DAKOTA  *****

CITY           SKY/WX    TMP DP  RH WIND       PRES   REMARKS
BISMARCK       CLOUDY    30  25  81 CALM      29.79S
6HR MIN TEMP:  22; 6HR MAX TEMP:  30; 6HR PCP:  0.01;

MINOT          CLOUDY    32  30  92 SW9       29.70F WCI  24
6HR MIN TEMP:  27; 6HR MAX TEMP:  33; 6HR PCP:  0.02;

JAMESTOWN      MOCLDY    32  30  92 S13       29.79F WCI  22
6HR MIN TEMP:  32; 6HR MAX TEMP:  34;

MINOT AFB      CLOUDY    32  30  91 W10       29.70S WCI  24
GARRISON         N/A     33  31  92 W13       29.73S WCI  24
WILLISTON      CLOUDY    35  29  78 W16       29.77R
6HR MIN TEMP:  30; 6HR MAX TEMP:  35; 6HR PCP:  0.01;

DICKINSON      PTCLDY    30  25  81 W20       29.76R WCI  17
6HR MIN TEMP:  25; 6HR MAX TEMP:  32; 6HR PCP: TRACE;

HETTINGER      CLEAR     29  23  78 W17       29.83R WCI  17
6HR MIN TEMP:  24; 6HR MAX TEMP:  34; 6HR PCP: TRACE;

$$

 *****  OTHER AIRPORT OBSERVATIONS IN OUR AREA  *****

CITY           SKY/WX    TMP DP  RH WIND       PRES   REMARKS
WALHALLA         N/A     30  30 100 SE14      29.84F FOG     WCI  20
GRAFTON AIRPOR CLOUDY    32  32 100 SE13      29.89S FOG     WCI  22
VALLEY CITY AR FLURRIES  32  32 100 S14       29.85F WCI  22
CANDO          CLOUDY    32  32 100 S9        29.78F WCI  24
CAVALIER APRT    N/A     30  30 100 SE10      29.85F FOG     WCI  21
GWINNER        CLOUDY    36  34  93 S12       29.88F
SHEYENNE NWR     N/A     34  32  91 S12       29.95S
ROLLA          CLOUDY    28  28 100 S15       29.73F WCI  17
 ***** THE ABOVE OBSERVATIONS ARE NON NWS ARE NOT QUALITY
       CONTROLLED AND MAY MIS-REPORT RAIN FOR SNOW...
$$

  *****  WEATHER ACROSS NORTHERN MINNESOTA  *****

CITY           SKY/WX    TMP DP  RH WIND       PRES   REMARKS
FLAG ISLAND    CLOUDY    27  23  86 SE15      29.98F WCI  15
WARROAD        LGT SNOW  27  21  80 SE10      29.96F WCI  17
ROSEAU         LGT SNOW  28  23  80 SE10      29.94F WCI  19
HALLOCK        CLOUDY    30  28  93 SE15      29.89S WCI  19
THF RVR FALLS  CLOUDY    30  27  88 SE13      29.93F WCI  20
6HR MIN TEMP:  24; 6HR MAX TEMP:  30;

BAUDETTE       LGT SNOW  24  20  84 SE12      29.98F FOG     WCI  13
6HR MIN TEMP:  22; 6HR MAX TEMP:  25; 6HR PCP: TRACE;

WASKISH        CLOUDY    27  25  93 SE8       29.98F WCI  18
CROOKSTON      CLOUDY    34  30  86 S15       29.91F WCI  24
GREENBUSH NDAW   N/A     28  27  93 SE12        N/A  WCI  18
$$
  *****  WEATHER ACROSS CENTRAL AND WEST MINNESOTA  *****

CITY           SKY/WX    TMP DP  RH WIND       PRES   REMARKS
FOSSTON        CLOUDY    28  27  93 SE14      29.93F WCI  17
BEMIDJI        LGT SNOW  27  25  91 SE10      29.97F WCI  17
PARK RAPIDS    LGT SNOW  29  24  82 SE13      29.97F WCI  19
6HR MIN TEMP:  26; 6HR MAX TEMP:  29; 6HR PCP: TRACE;

ELBOW LAKE     CLOUDY    32  32 100 S15       29.97F FOG     WCI  22
WADENA         LGT SNOW  28  27  93 SE8       29.98F WCI  20
DETROIT LAKES  CLOUDY    32  32 100 S12       29.95F FOG     WCI  23
MOORHEAD       CLOUDY    34  30  86 S15G24    29.92F FOG     WCI  24
FERGUS FALLS   CLOUDY    34  34 100 S16       29.99F FOG     WCI  23
MORRIS MN      MOCLDY    34  32  93 S15       29.96F FOG     WCI  24
STAPLES        LGT SNOW  27  27 100 SE8       30.00F WCI  18
$$
  *****  WEATHER ELSEWHERE ACROSS MINNESOTA  *****

CITY           SKY/WX    TMP DP  RH WIND       PRES   REMARKS
DULUTH         CLOUDY    28  21  75 SE9       30.09F WCI  19
6HR MIN TEMP:  27; 6HR MAX TEMP:  29;

INTRNTL FALLS  PTCLDY    22  18  85 SE8       30.04F WCI  12
6HR MIN TEMP:  20; 6HR MAX TEMP:  27;

ELY            PTCLDY    25  21  86 SE3       30.08F
CLOQUET        CLOUDY    28  19  69 SE5       30.09F WCI  23
WHEATON        NOT AVBL
BRAINERD       LGT SNOW  28  25  88 SE9       30.04F FOG     WCI  19
6HR MIN TEMP:  27; 6HR MAX TEMP:  28; 6HR PCP: TRACE;

HIBBING        CLOUDY    26  19  74 S9        30.06F WCI  17
6HR MIN TEMP:  25; 6HR MAX TEMP:  27;

ALEXANDRIA     LGT SNOW  33  32  96 S14       29.99F FOG     WCI  23
6HR MIN TEMP:  30; 6HR MAX TEMP:  33; 6HR PCP:  0.01;

SAINT CLOUD    LGT SNOW  30  28  92 SE9       30.06F FOG     WCI  22
6HR MIN TEMP:  29; 6HR MAX TEMP:  30; 6HR PCP:  0.01;

MINNEAPOLIS    LGT SNOW  31  26  82 SE8       30.12F WCI  23
6HR MIN TEMP:  31; 6HR MAX TEMP:  32; 6HR PCP: TRACE;

$$

  *****  WEATHER ACROSS SOUTH DAKOTA  *****

CITY           SKY/WX    TMP DP  RH WIND       PRES   REMARKS
SIOUX FALLS    CLOUDY    34  33  96 S14G26    29.99F FOG     WCI  25
6HR MIN TEMP:  34; 6HR MAX TEMP:  35; 6HR PCP: TRACE;

BROOKINGS      CLOUDY    32  31  96 S18       29.94F FOG     WCI  20
WATERTOWN      CLOUDY    32  32 100 S16       29.91F FOG     WCI  21
6HR MIN TEMP:  32; 6HR MAX TEMP:  33;

HURON          PTCLDY    32  32 100 S12       29.92R WCI  23
6HR MIN TEMP:  32; 6HR MAX TEMP:  35;

SISSETON         N/A     36  32  85 S17G24    29.91F
ABERDEEN       MOCLDY    32  30  92 S12       29.88F WCI  23
6HR MIN TEMP:  32; 6HR MAX TEMP:  34;

MITCHELL       CLEAR     34  32  92 S13       29.94F WCI  25
PIERRE         CLOUDY    30  23  75 SW10      29.88S WCI  21
6HR MIN TEMP:  26; 6HR MAX TEMP:  33;

MOBRIDGE       CLOUDY    30  24  78 S5        29.81F
RAPID CITY     CLEAR     27  20  75 W7        29.92R WCI  19
6HR MIN TEMP:  26; 6HR MAX TEMP:  37;

$$

  *****  SOME WEATHER IN NEARBY STATES *****

CITY           SKY/WX    TMP DP  RH WIND       PRES   REMARKS
GLASGOW MT     CLEAR     27  23  85 W7        29.83R WCI  19
6HR MIN TEMP:  27; 6HR MAX TEMP:  37;

GREAT FALLS MT CLOUDY    30  20  66 SW12      29.88F WCI  20
6HR MIN TEMP:  26; 6HR MAX TEMP:  32;

CHEYENNE WY    CLEAR     24   9  52 W18G25    29.99R WCI  10
6HR MIN TEMP:  24; 6HR MAX TEMP:  29;

SCOTTSBLUFF NE PTCLDY    23  13  65 NW6       30.01R WCI  16
6HR MIN TEMP:  21; 6HR MAX TEMP:  37;

OMAHA NE       LGT RAIN  33  29  85 SE5       30.05F VSB 1
6HR MIN TEMP:  33; 6HR MAX TEMP:  34; 6HR PCP:  0.25;

DES MOINES IA  LGT SNOW  36  34  92 SE10      30.11F FOG
6HR MIN TEMP:  37; 6HR MAX TEMP:  40; 6HR PCP:  0.08;

DAVENPORT IA   CLOUDY    34  26  72 SE8       30.23F
6HR MIN TEMP:  32; 6HR MAX TEMP:  34;

CHICAGO IL     CLOUDY    31  24  75 SW5       30.27S
6HR MIN TEMP:  29; 6HR MAX TEMP:  32;

EAU CLAIRE WI  CLOUDY    30  23  75 SE5       30.16F
6HR MIN TEMP:  28; 6HR MAX TEMP:  30;

LA CROSSE WI   CLOUDY    34  27  75 SE6       30.19F
6HR MIN TEMP:  32; 6HR MAX TEMP:  34;

$$

  *****  SOME NATIONAL WEATHER *****

CITY           SKY/WX    TMP DP  RH WIND       PRES   REMARKS
LA GUARDIA NY  CLOUDY    44  27  51 NW17      30.17R
6HR MIN TEMP:  44; 6HR MAX TEMP:  46;

RALEIGH NC     CLOUDY    44  32  62 CALM      30.27F
6HR MIN TEMP:  43; 6HR MAX TEMP:  47;

ATLANTA GA     CLOUDY    47  44  90 E12       30.16F
6HR MIN TEMP:  47; 6HR MAX TEMP:  49; 6HR PCP:  0.06;

NEW ORLEANS LA LGT RAIN  61  60  97 E20       29.93S
6HR MIN TEMP:  60; 6HR MAX TEMP:  65; 6HR PCP:  0.03;

OKLAHOMA CITY  CLOUDY    44  43  96 E6        30.01F FOG
6HR MIN TEMP:  44; 6HR MAX TEMP:  44; 6HR PCP:  0.02;

ALBUQUERQUE NM CLEAR     35  20  54 N8        30.11R
6HR MIN TEMP:  35; 6HR MAX TEMP:  44;

SALT LAKE CITY PTCLDY    31  20  63 SE12      30.27R WCI  22
6HR MIN TEMP:  31; 6HR MAX TEMP:  34;

LOS ANGELES CA CLEAR     54  38  54 NE5       30.06S
6HR MIN TEMP:  53; 6HR MAX TEMP:  63;

BOISE ID       PTCLDY  C1F1C2F2C3F3C4F4C5F5C6F6C7F7C8F8C9F9CaFaCbFbCcFcCd!



USA.gov is the U.S. government's official web portal to all federal, state and local government web resources and services.